Find Starlink 35194

NORAD ID: 65671 Int'l Des: 2025-211 Owner: SPXS Country: US Constellation: starlink operational
LEOCIRCULARRETROGRADESSO

当前视图

正在加载3D地球...

About Starlink 35194

Starlink 35194 (NORAD 65671) is a starlink constellation satellite (v2 mini) launched Sep 19, 2025 by SPXS of US. It operates in LEO, CIRCULAR, RETROGRADE, SSO orbit with a mass of 575.00 kg.

即将过境

Passes for default location (London). Set your location on the main map for personalized predictions.

高度历史

Loading altitude history...

两行轨道根数

1 65671U 25211V 26262.35472664 .00014409 00000-0 44782-3 0 9997
2 65671 97.2802 302.5398 0000410 47.2284 312.8993 15.33442299 56342
Epoch: Sep 19, 2026 • Age: 37 hours

当前状态

高度 486.2 km
远地点 / 近地点 N/A
速度 7.62 km/s
星下点 -53.33°S, 13.88°W
发射日期 Sep 19, 2025
运行时间 1 year
类型 internet

技术详情

分类 Payload
质量 575.00 kg
干质量 530.00 kg
长度 0.30 m
跨度 29.00 m
形状 ? Box + pan
制造商 SPXS
平台类型 Starlink V2MO
阶段状态 In Orbit
所有者/国家 SPXS/US

Most Searched